FW9915 Weather Reports


time (UTC)temp
F
wind
direction
speed
knots
gust
knots
rain 1hr
in
rain 24hr
in
rain mn
in
humidity
%
barometer
mb
20260831102533 80 70 4.3 9.6 0.00 0.00 0.00 44 1018.2
20260831101520 80 99 4.3 9.6 0.00 0.00 0.00 44 1018.2
20260831100520 80 69 6.1 7.8 0.00 0.00 0.00 46 1018.2
20260831095521 79 46 5.2 9.6 0.00 0.00 0.00 46 1018.3
20260831094601 79 45 5.2 9.6 0.00 0.00 0.00 46 1018.3
20260831093521 80 56 4.3 7.8 0.00 0.00 0.00 49 1018.3
20260831092520 79 58 5.2 9.6 0.00 0.00 0.00 49 1018.3
20260831091520 79 54 4.3 7.8 0.00 0.00 0.00 50 1018.4
20260831090521 79 59 5.2 7.8 0.00 0.00 0.00 51 1018.4
20260831085541 79 42 2.6 6.1 0.00 0.00 0.00 49 1018.5
20260831084520 78 58 4.3 7.8 0.00 0.00 0.00 51 1018.5
20260831083521 79 35 6.1 9.6 0.00 0.00 0.00 51 1018.5
20260831082540 79 36 6.1 9.6 0.00 0.00 0.00 51 1018.6
20260831081520 78 61 5.2 9.6 0.00 0.00 0.00 54 1018.5
20260831080521 78 57 5.2 7.8 0.00 0.00 0.00 59 1018.5
20260831075520 77 58 7.0 9.6 0.00 0.00 0.00 58 1018.4
20260831074520 77 48 5.2 9.6 0.00 0.00 0.00 62 1018.5
20260831073541 77 41 5.2 7.8 0.00 0.00 0.00 63 1018.5
20260831072520 76 71 5.2 9.6 0.00 0.00 0.00 63 1018.4
20260831071520 76 51 7.0 9.6 0.00 0.00 0.00 66 1018.3
20260831070521 75 53 6.1 9.6 0.00 0.00 0.00 73 1018.4
20260831065540 74 26 6.1 9.6 0.00 0.00 0.00 82 1018.4
20260831064520 73 29 6.1 7.8 0.00 0.00 0.00 89 1018.4
20260831063520 73 35 6.1 9.6 0.00 0.00 0.00 91 1018.4
20260831062521 72 40 5.2 7.8 0.00 0.00 0.00 93 1018.3
20260831061553 72 32 5.2 9.6 0.00 0.00 0.00 93 1018.3
20260831060521 72 27 4.3 7.8 0.00 0.00 0.00 92 1018.3
20260831055540 72 18 4.3 7.8 0.00 0.00 0.00 92 1018.2
20260831054533 71 26 5.2 9.6 0.00 0.00 0.00 95 1018.1
20260831053520 70 18 7.0 9.6 0.00 0.00 0.00 97 1018.0
20260831052532 70 18 7.8 13.0 0.00 0.00 0.00 96 1018.0
20260831051520 70 15 7.0 9.6 0.00 0.00 0.00 96 1018.0
20260831050520 69 1 6.1 9.6 0.00 0.00 0.00 96 1017.9
20260831045520 68 20 6.1 9.6 0.00 0.00 0.00 96 1017.8
20260831044521 68 15 5.2 7.8 0.00 0.00 0.00 98 1017.8
20260831043520 67 2 3.5 6.1 0.00 0.00 0.00 99 1017.8
20260831042521 67 328 2.6 6.1 0.00 0.00 0.00 99 1017.8
20260831041601 66 337 3.5 6.1 0.00 0.00 0.00 99 1017.9
20260831040521 65 327 3.5 6.1 0.00 0.00 0.00 99 1017.8
20260831035520 65 326 4.3 6.1 0.00 0.00 0.00 99 1017.8
20260831034521 64 340 2.6 3.5 0.00 0.00 0.00 99 1017.7
20260831033533 64 336 2.6 3.5 0.00 0.00 0.00 99 1017.7
20260831032520 64 334 3.5 6.1 0.00 0.00 0.00 99 1017.7
20260831031520 65 328 3.5 6.1 0.00 0.00 0.00 99 1017.7
20260831030520 65 336 4.3 6.1 0.00 0.00 0.00 99 1017.7
20260831025520 65 333 3.5 6.1 0.00 0.00 0.00 99 1017.8
20260831024521 65 329 3.5 6.1 0.00 0.00 0.00 99 1017.8
20260831023521 65 336 2.6 6.1 0.00 0.00 0.00 99 1017.8
20260831022533 65 330 3.5 3.5 0.00 0.00 0.00 98 1017.8
20260831021521 65 330 3.5 6.1 0.00 0.00 0.00 98 1017.8
20260831020520 65 326 4.3 7.8 0.00 0.00 0.00 97 1017.9
20260831015521 65 327 4.3 6.1 0.00 0.00 0.00 97 1017.8
20260831014533 65 331 3.5 6.1 0.00 0.00 0.00 97 1017.9
20260831013541 64 329 2.6 3.5 0.00 0.00 0.00 97 1017.9
20260831012521 64 328 2.6 6.1 0.00 0.00 0.00 97 1018.0
20260831011520 64 331 2.6 3.5 0.00 0.00 0.00 98 1017.9
20260831010520 64 333 2.6 3.5 0.00 0.00 0.00 98 1017.9
20260831005533 64 338 1.7 3.5 0.00 0.00 0.00 99 1018.0
20260831004521 64 338 1.7 3.5 0.00 0.00 0.00 99 1018.0
20260831003521 65 338 1.7 3.5 0.00 0.00 0.00 99 1018.0
20260831002521 65 336 1.7 3.5 0.00 0.00 0.00 99 1018.1
20260831001520 65 334 3.5 6.1 0.00 0.00 0.00 99 1018.1
20260831000521 65 338 1.7 3.5 0.00 0.00 0.00 99 1018.1
20260830235541 65 338 1.7 3.5 0.00 0.00 0.00 99 1018.0
20260830234521 65 338 0.9 3.5 0.00 0.00 0.00 98 1018.0
20260830233520 65 332 1.7 3.5 0.00 0.00 0.00 98 1018.1
20260830232520 66 326 1.7 3.5 0.00 0.00 0.00 98 1018.3
20260830231521 65 335 2.6 3.5 0.00 0.00 0.00 98 1018.3
20260830230521 66 23 1.7 3.5 0.00 0.00 0.00 98 1018.2
20260830225540 66 9 1.7 3.5 0.00 0.00 0.00 98 1018.3
20260830224521 66 338 1.7 3.5 0.00 0.00 0.00 97 1018.3
20260830223521 66 337 2.6 3.5 0.00 0.00 0.00 97 1018.4
20260830222533 66 332 2.6 3.5 0.00 0.00 0.00 97 1018.5
20260830221521 66 321 1.7 3.5 0.00 0.00 0.00 96 1018.4
20260830220521 66 338 1.7 3.5 0.00 0.00 0.00 96 1018.5
20260830215521 66 338 1.7 3.5 0.00 0.00 0.00 96 1018.4
20260830214520 66 341 1.7 3.5 0.00 0.00 0.00 95 1018.3
20260830213541 67 353 1.7 3.5 0.00 0.00 0.00 95 1018.4
20260830212533 67 6 1.7 3.5 0.00 0.00 0.00 95 1018.3
20260830211533 67 23 1.7 3.5 0.00 0.00 0.00 95 1018.3
20260830210521 67 338 1.7 3.5 0.00 0.00 0.00 94 1018.3
20260830205541 67 338 1.7 3.5 0.00 0.00 0.00 94 1018.4
20260830204521 67 338 1.7 3.5 0.00 0.00 0.00 94 1018.4
20260830203545 67 338 1.7 1.7 0.00 0.00 0.00 94 1018.4
20260830202521 67 356 1.7 3.5 0.00 0.00 0.00 93 1018.3
20260830201533 67 11 1.7 3.5 0.00 0.00 0.00 93 1018.2
20260830200541 67 23 1.7 3.5 0.00 0.00 0.00 92 1018.2
20260830195541 68 23 1.7 3.5 0.00 0.00 0.00 92 1018.2
20260830194521 68 23 2.6 3.5 0.00 0.00 0.00 91 1018.2
20260830193521 68 33 3.5 3.5 0.00 0.00 0.00 91 1018.2
20260830192521 68 24 2.6 3.5 0.00 0.00 0.00 91 1018.2
20260830191541 68 24 2.6 3.5 0.00 0.00 0.00 90 1018.2
20260830190521 68 23 2.6 3.5 0.00 0.00 0.00 88 1018.3
20260830185520 69 23 2.6 3.5 0.00 0.00 0.00 87 1018.3
20260830184521 69 33 3.5 6.1 0.00 0.00 0.00 86 1018.1
20260830183541 69 36 3.5 3.5 0.00 0.00 0.00 84 1018.1
20260830182521 69 41 3.5 3.5 0.00 0.00 0.00 83 1018.1
20260830181521 69 45 2.6 3.5 0.00 0.00 0.00 82 1018.0
20260830180520 70 45 2.6 3.5 0.00 0.00 0.00 81 1017.9
20260830175533 70 45 1.7 3.5 0.00 0.00 0.00 80 1018.0
20260830174541 70 68 1.7 3.5 0.00 0.00 0.00 80 1017.9
20260830173545 70 68 1.7 3.5 0.00 0.00 0.00 79 1017.7
20260830172521 71 68 2.6 3.5 0.00 0.00 0.00 78 1017.6
20260830171521 72 59 3.5 6.1 0.00 0.00 0.00 76 1017.5
20260830170521 73 54 4.3 6.1 0.00 0.00 0.00 74 1017.4
20260830165524 73 57 5.2 7.8 0.00 0.00 0.00 72 1017.3
20260830164533 74 63 6.1 7.8 0.00 0.00 0.00 69 1017.3
20260830163521 74 63 5.2 7.8 0.00 0.00 0.00 66 1017.3
20260830162521 75 54 6.1 7.8 0.00 0.00 0.00 60 1017.4
20260830161520 76 68 6.1 9.6 0.00 0.00 0.00 56 1017.4
20260830160557 77 56 6.1 7.8 0.00 0.00 0.00 53 1017.5
20260830155521 78 57 5.2 7.8 0.00 0.00 0.00 48 1017.5
20260830154521 78 56 5.2 9.6 0.00 0.00 0.00 46 1017.5
20260830153521 79 58 6.1 9.6 0.00 0.00 0.00 45 1017.5
20260830152521 79 65 5.2 7.8 0.00 0.00 0.00 44 1017.5
20260830151521 79 82 4.3 7.8 0.00 0.00 0.00 45 1017.5
20260830150541 79 67 5.2 7.8 0.00 0.00 0.00 45 1017.5
20260830145521 80 48 6.1 9.6 0.00 0.00 0.00 45 1017.5
20260830144521 80 53 6.1 9.6 0.00 0.00 0.00 46 1017.5
20260830143521 80 64 4.3 9.6 0.00 0.00 0.00 47 1017.5
20260830142521 80 75 4.3 7.8 0.00 0.00 0.00 47 1017.5
20260830141533 80 89 3.5 6.1 0.00 0.00 0.00 51 1017.5
20260830140533 80 74 3.5 7.8 0.00 0.00 0.00 49 1017.6
20260830135521 80 57 4.3 7.8 0.00 0.00 0.00 48 1017.6
20260830134521 81 84 3.5 7.8 0.00 0.00 0.00 51 1017.6
20260830133521 81 76 5.2 9.6 0.00 0.00 0.00 51 1017.6
20260830132521 81 82 4.3 7.8 0.00 0.00 0.00 53 1017.6
20260830131521 80 104 4.3 7.8 0.00 0.00 0.00 55 1017.6
20260830130545 78 111 4.3 6.1 0.00 0.00 0.00 61 1017.6
20260830125541 78 99 3.5 6.1 0.00 0.00 0.00 63 1017.6
20260830124521 79 113 4.3 7.8 0.00 0.00 0.00 60 1017.6
20260830123601 80 102 3.5 7.8 0.00 0.00 0.00 56 1017.6
20260830122601 80 76 4.3 6.1 0.00 0.00 0.00 52 1017.6
20260830121521 80 55 5.2 9.6 0.00 0.00 0.00 54 1017.7
20260830120533 81 89 5.2 7.8 0.00 0.00 0.00 51 1017.6
20260830115521 82 83 5.2 7.8 0.00 0.00 0.00 49 1017.6
20260830114533 82 56 7.0 9.6 0.00 0.00 0.00 46 1017.6
20260830113521 81 63 6.1 14.8 0.00 0.00 0.00 48 1017.5
20260830112541 81 66 5.2 7.8 0.00 0.00 0.00 51 1017.6
20260830111521 81 67 4.3 7.8 0.00 0.00 0.00 52 1017.6
20260830110521 82 69 4.3 9.6 0.00 0.00 0.00 50 1017.6
20260830105521 81 50 5.2 9.6 0.00 0.00 0.00 51 1017.6
20260830104521 82 44 5.2 9.6 0.00 0.00 0.00 50 1017.5
20260830103521 82 45 5.2 9.6 0.00 0.00 0.00 51 1017.5